Flag for Netherlands Weather past 2 weeks in Almere, Netherlands

Now
52 °F

Passing clouds.


Feels Like: 47 °F
Forecast: 47 / 53 °F
Wind: 13 mph from Southwest

Location: Amsterdam Schiphol Airport

Current Time: Dec 18, 2014 at 12:38:22 AM

Latest Report: Dec 17, 2014 at 11:55 PM


Visibility: N/A

Pressure: 29.77 "Hg

Humidity: 88%

Dew point: 48 °F

Location of AlmereLocation

Historic Weather in Almere — Graph

°F

Almere temperature yesterday

Maximum temperature yesterday: 52 °F (at 12:55 PM)
Minimum temperature yesterday: 37 °F (at 12:25 AM)
Average temperature yesterday: 47 °F

Past Weeks' High & Low Weather Summary

 TemperatureHumidityPressure
High52 °F (Dec 17, 12:55 PM)100% (Dec 5, 8:25 PM)30.33 "Hg (Dec 5, 8:25 PM)
Low27 °F (Dec 3, 11:55 PM)61% (Dec 11, 4:25 PM)29.27 "Hg (Dec 12, 8:25 AM)
Average40 °F86%29.92 "Hg
* Reported Dec 2 11:25 PM — Dec 17 11:25 PM, Almere, Weather by CustomWeather, © 2014

Note: Actual official high and low records may vary slightly from our data, if they occured in-between our weather recording intervals... More about our weather records

Advertising

Almere weather history for previous 24 hours

 ConditionsComfort  
Time TempWeatherWind HumidityBarometerVisibility
11:25 PM
Dec 17
52 °FPassing clouds.10 mph88%29.74 "HgN/A
10:55 PM52 °FPassing clouds.9 mph88%29.74 "HgN/A
10:25 PM52 °FPassing clouds.12 mph88%29.74 "HgN/A
9:55 PM52 °FPassing clouds.10 mph88%29.74 "HgN/A
9:25 PM52 °FPassing clouds.9 mph88%29.74 "HgN/A
8:55 PM52 °FPassing clouds.13 mph88%29.71 "HgN/A
8:25 PM52 °FPassing clouds.12 mph88%29.71 "HgN/A
7:55 PM50 °FPassing clouds.13 mph94%29.71 "HgN/A
7:25 PM50 °FPassing clouds.12 mph94%29.68 "HgN/A
6:55 PM50 °FPassing clouds.12 mph94%29.68 "HgN/A
6:25 PM50 °FPassing clouds.14 mph94%29.68 "HgN/A
5:55 PM50 °FPartly cloudy.14 mph94%29.65 "HgN/A
5:25 PM50 °FPartly cloudy.13 mph94%29.65 "HgN/A
4:55 PM50 °FPartly cloudy.13 mph94%29.62 "HgN/A
4:25 PM50 °FBroken clouds.13 mph94%29.62 "HgN/A
3:55 PM50 °FPartly sunny.16 mph100%29.62 "HgN/A
3:25 PM50 °FDrizzle. Partly sunny.15 mph100%29.59 "Hg4 mi
1:55 PM52 °FMore clouds than sun.20 mph94%29.56 "HgN/A
1:25 PM52 °FDrizzle. Broken clouds.18 mph94%29.56 "Hg4 mi
12:55 PM52 °FBroken clouds.20 mph88%29.53 "HgN/A
12:25 PM50 °FPartly sunny.17 mph94%29.53 "HgN/A
11:55 AM50 °FMore clouds than sun.15 mph94%29.53 "Hg6 mi
11:25 AM48 °FDrizzle. Cloudy.13 mph94%29.53 "Hg5 mi
10:55 AM46 °FDrizzle. Fog.17 mph93%29.53 "Hg1 mi
9:55 AM43 °FDrizzle. Fog.20 mph100%29.53 "Hg2 mi
8:25 AM43 °FDrizzle. Mostly cloudy.23 mph93%29.53 "Hg4 mi
7:55 AM43 °FDrizzle. Mostly cloudy.21 mph93%29.56 "Hg4 mi
7:25 AM41 °FDrizzle. Mostly cloudy.20 mph100%29.59 "Hg2 mi
6:25 AM41 °FLight rain. Passing clouds.18 mph93%29.62 "HgN/A
5:55 AM41 °FLight rain. Passing clouds.18 mph93%29.65 "HgN/A
5:25 AM41 °FLight rain. Partly cloudy.17 mph93%29.68 "Hg6 mi
4:55 AM41 °FLight rain. Passing clouds.16 mph93%29.71 "HgN/A
4:25 AM41 °FLight rain. Passing clouds.14 mph87%29.74 "HgN/A
3:55 AM41 °FPassing clouds.13 mph87%29.74 "HgN/A
3:25 AM41 °FPassing clouds.13 mph93%29.77 "HgN/A
2:55 AM41 °FPassing clouds.12 mph93%29.80 "HgN/A
1:55 AM41 °FPassing clouds.12 mph93%29.83 "HgN/A
12:55 AM41 °FPassing clouds.12 mph87%29.86 "HgN/A
12:25 AM37 °FPassing clouds.9 mph100%29.86 "HgN/A
Weather by CustomWeather, © 2014

See weather overviewHow to use our weather pages